GW3529 Weather Reports


Display with metric or nautical units.
time (UTC)temp
F
wind
direction
speed
MPH
gust
MPH
rain 1hr
in
rain 24hr
in
rain mn
in
humidity
%
barometer
mb
20260904050005 69 180 2.0 4.0 0.00 0.00 0.00 55 1004.2
20260904044507 68 180 1.0 3.0 0.00 0.00 0.00 56 1003.9
20260904043101 68 180 4.0 6.0 0.00 0.00 0.00 54 1004.0
20260904041605 69 158 4.0 8.0 0.00 0.00 0.00 53 1003.9
20260904040058 69 165 4.0 6.0 0.00 0.00 0.00 51 1003.9
20260904034554 72 157 2.0 6.0 0.00 0.00 0.00 48 1003.9
20260904033102 73 157 1.0 5.0 0.00 0.00 0.00 46 1003.7
20260904031547 75 155 0.0 0.0 0.00 0.00 0.00 43 1003.5
20260904030046 75 155 0.0 5.0 0.00 0.00 0.00 43 1003.4
20260904024545 75 126 5.0 10.0 0.00 0.00 0.00 43 1003.1
20260904023042 76 81 0.0 3.0 0.00 0.00 0.00 40 1002.9
20260904021540 77 76 0.0 3.0 0.00 0.00 0.00 38 1002.6
20260904020038 78 74 2.0 8.0 0.00 0.00 0.00 37 1002.4
20260904014555 78 200 2.0 3.0 0.00 0.00 0.00 36 1002.3
20260904013035 80 202 0.0 3.0 0.00 0.00 0.00 33 1001.9
20260904011534 83 201 1.0 4.0 0.00 0.00 0.00 30 1001.8
20260904010034 84 204 2.0 6.0 0.00 0.00 0.00 29 1001.4
20260904004533 86 166 2.0 6.0 0.00 0.00 0.00 25 1001.2
20260904003032 87 144 1.0 6.0 0.00 0.00 0.00 24 1001.1
20260904001546 88 121 1.0 6.0 0.00 0.00 0.00 24 1000.9
20260904000053 88 138 1.0 7.0 0.00 0.00 0.00 22 1000.9
20260903234530 89 122 2.0 9.0 0.00 0.00 0.00 21 1000.8
20260903233033 89 74 2.0 9.0 0.00 0.00 0.00 21 1000.6
20260903231604 89 107 4.0 8.0 0.00 0.00 0.00 21 1000.7
20260903230004 89 168 2.0 8.0 0.00 0.00 0.00 22 1000.5
20260903224502 89 11 2.0 10.0 0.00 0.00 0.00 21 1000.6
20260903223100 88 56 5.0 14.0 0.00 0.00 0.00 21 1000.6
20260903221600 88 84 4.0 20.0 0.00 0.00 0.00 23 1000.6
20260903220106 88 22 8.0 14.0 0.00 0.00 0.00 22 1000.7
20260903214539 87 21 4.0 14.0 0.00 0.00 0.00 23 1000.9
20260903213025 88 121 9.0 16.0 0.00 0.00 0.00 23 1000.9
20260903211525 88 17 6.0 15.0 0.00 0.00 0.00 23 1001.1
20260903210024 88 20 1.0 9.0 0.00 0.00 0.00 22 1001.1
20260903204525 87 165 4.0 13.0 0.00 0.00 0.00 22 1001.3
20260903203021 88 46 11.0 20.0 0.00 0.00 0.00 25 1001.2
20260903201529 87 116 6.0 13.0 0.00 0.00 0.00 24 1001.4
20260903200019 86 325 5.0 14.0 0.00 0.00 0.00 25 1001.5
20260903194519 86 43 9.0 15.0 0.00 0.00 0.00 25 1001.6
20260903193017 85 20 4.0 14.0 0.00 0.00 0.00 25 1001.6
20260903191517 85 28 11.0 16.0 0.00 0.00 0.00 25 1001.7
20260903190017 85 5 13.0 17.0 0.00 0.00 0.00 25 1001.7
20260903184517 86 5 10.0 17.0 0.00 0.00 0.00 25 1001.9
20260903183015 86 42 8.0 13.0 0.00 0.00 0.00 21 1001.9
20260903181517 85 355 9.0 16.0 0.00 0.00 0.00 21 1001.9
20260903180035 85 17 7.0 14.0 0.00 0.00 0.00 21 1002.0
20260903174512 84 28 3.0 18.0 0.00 0.00 0.00 22 1002.1
20260903173012 85 5 14.0 20.0 0.00 0.00 0.00 21 1002.2
20260903171512 85 24 11.0 20.0 0.00 0.00 0.00 21 1002.2
20260903170013 84 11 8.0 19.0 0.00 0.00 0.00 23 1002.1
20260903164508 84 5 13.0 20.0 0.00 0.00 0.00 26 1002.2
20260903163009 87 325 8.0 15.0 0.00 0.00 0.00 23 1002.1
20260903161504 86 321 12.0 18.0 0.00 0.00 0.00 25 1002.2
20260903160101 85 355 2.0 5.0 0.00 0.00 0.00 25 1002.0
20260903154559 82 292 3.0 8.0 0.00 0.00 0.00 28 1001.8
20260903153053 80 296 6.0 9.0 0.00 0.00 0.00 30 1001.9
20260903151552 79 5 9.0 16.0 0.00 0.00 0.00 30 1001.9
20260903150047 78 42 16.0 22.0 0.00 0.00 0.00 29 1001.8
20260903144546 78 360 14.0 23.0 0.00 0.00 0.00 31 1001.8
20260903143041 78 289 5.0 12.0 0.00 0.00 0.00 32 1001.5
20260903141540 79 229 8.0 16.0 0.00 0.00 0.00 31 1001.1
20260903140053 80 226 6.0 20.0 0.00 0.00 0.00 30 1000.8
20260903134540 78 211 8.0 18.0 0.00 0.01 0.00 31 1000.8
20260903133034 75 246 12.0 20.0 0.00 0.01 0.00 34 1001.0
20260903131536 74 196 8.0 14.0 0.00 0.01 0.00 35 1001.1
20260903130032 74 225 10.0 18.0 0.00 0.01 0.00 36 1001.1
20260903124529 75 231 8.0 19.0 0.00 0.01 0.00 35 1001.0
20260903123035 75 235 9.0 17.0 0.00 0.01 0.00 35 1000.9
20260903121528 75 252 11.0 19.0 0.00 0.01 0.00 35 1000.9
20260903120022 74 227 12.0 19.0 0.00 0.01 0.00 35 1001.1
20260903114522 75 253 10.0 19.0 0.00 0.01 0.00 35 1001.2
20260903113023 75 231 9.0 22.0 0.00 0.01 0.00 34 1001.2
20260903111545 75 234 11.0 17.0 0.00 0.01 0.00 34 1001.1
20260903110046 76 220 9.0 18.0 0.00 0.01 0.00 34 1001.1
20260903104543 76 223 10.0 19.0 0.00 0.01 0.00 34 1001.2
20260903103042 76 230 9.0 18.0 0.00 0.01 0.00 34 1001.1
20260903101540 76 194 8.0 18.0 0.00 0.01 0.00 34 1001.2
20260903100037 77 233 9.0 19.0 0.00 0.01 0.00 34 1001.2
20260903094541 77 207 11.0 17.0 0.00 0.01 0.00 33 1001.0
20260903093048 77 227 5.0 14.0 0.00 0.01 0.00 33 1000.9
20260903091530 78 213 10.0 20.0 0.00 0.01 0.00 32 1001.0
20260903090029 78 228 10.0 18.0 0.00 0.01 0.00 32 1001.0
20260903084531 78 242 14.0 19.0 0.00 0.01 0.00 32 1001.1
20260903083024 78 219 8.0 17.0 0.00 0.01 0.00 32 1001.1
20260903081521 78 201 9.0 19.0 0.00 0.01 0.00 32 1001.2
20260903080019 78 238 8.0 16.0 0.00 0.01 0.00 32 1001.4
20260903074518 78 205 8.0 22.0 0.00 0.01 0.00 32 1001.4
20260903073016 78 227 9.0 17.0 0.00 0.01 0.00 31 1001.4
20260903071517 78 223 9.0 20.0 0.00 0.01 0.00 31 1001.5
20260903070018 78 217 12.0 19.0 0.00 0.01 0.00 32 1001.6
20260903064507 79 239 9.0 19.0 0.00 0.01 0.00 31 1001.6
20260903063003 79 234 7.0 18.0 0.00 0.01 0.00 31 1001.8
20260903061601 79 254 9.0 15.0 0.00 0.01 0.00 31 1001.8
20260903060058 78 213 9.0 15.0 0.00 0.01 0.00 32 1001.9
20260903054558 79 236 5.0 11.0 0.00 0.01 0.01 32 1001.9
20260903053059 79 230 6.0 10.0 0.00 0.01 0.01 31 1002.1
20260903051559 80 212 6.0 12.0 0.00 0.01 0.01 30 1002.1